Location: Street
(51.1247°N, 2.7429°W)
Time: 05:43:35
(UTC+01:00)

CAS-6 - Pass Details

Date: 05 April 2023
Orbit: 610 x 632 km, 97.9° (Epoch: 29 May)

Event Time Altitude Azimuth Distance (km) Brightness Sun altitude
Exits shadow 22:11:53 24° 63° (ENE) 1,313 ? -20.7°
Maximum altitude 22:11:57 24° 62° (ENE) 1,313 ? -20.7°
Drops below altitude 10° 22:15:27 10° 9° (N) 2,017 ? -21.1°
Sets 22:17:59 0° 356° (N) 2,933 ? -21.4°
